Location: GMARS
(34.2910°N, 116.3838°W)
Time: 16:50:47
(UTC-08:00)

Envisat - Pass Details

Date: 27 October 2019
Orbit: 764 x 766 km, 98.1° (Epoch: 16 November)

Event Time Altitude Azimuth Distance (km) Brightness Sun altitude
Rises 19:26:51 0° 185° (S) 3,214 6.3 -19.0°
Reaches altitude 10° 19:29:17 10° 193° (SSW) 2,292 5.6 -19.5°
Maximum altitude 19:34:00 40° 262° (W) 1,123 4.4 -20.5°
Drops below altitude 10° 19:38:45 10° 331° (NNW) 2,305 5.8 -21.5°
Sets 19:41:13 0° 339° (NNW) 3,234 6.5 -22.0°
